マックホルツ第2彗星

141P/Machholz 2 (2015)

English version
Home page
Updated on June 11, 2016

---------------------------------------------------------------------

・ プロフィール

・ 写真集

・ 軌道要素

141P-A/Machholz
Epoch 2015 Aug. 6.0 TT = JDT 2457240.5
T 2015 Aug. 25.02187 TT                                 MPCW
q   0.7608700            (2000.0)            P               Q
n   0.18771414     Peri.  149.47637     +0.80263399     -0.56101959
a   3.0209119      Node   246.01694     +0.49261878     +0.81497438
e   0.7481323      Incl.   12.80974     +0.33631148     +0.14516813
P   5.25
From 243 observations 2005 Feb. 27-2015 Oct. 20, mean residual 0".8.
     Nongravitational parameters A1 = +0.52, A2 = -0.2024.

141P-H/Machholz
T 2015 Aug. 24.38663 TT                                 MPCW
q   0.7615618            (2000.0)            P               Q
n   0.18892299     Peri.  149.44996     +0.80208502     -0.56157545
a   3.0080116      Node   246.09005     +0.49309220     +0.81469739
e   0.7468222      Incl.   12.84306     +0.33692684     +0.14457240
P   5.22
From 81 observations 2015 Aug. 19-Sept. 6.

・ 星図

・ 光度変化

        A核
        m1 = 14.0 + 5 logΔ + 20 log r(t - 10)

        H核
        m1 = 16.5 + 5 logΔ + 20 log r(t - 10)

---------------------------------------------------------------------

A核の軌道要素はM.P.E.C. 2016-D32に掲載されたものです。
H核の軌道要素はM.P.E.C. 2015-R12に掲載されたものです。
星図はステラナビゲータ Ver.8 (アストロアーツ) で作成したものです。
光度グラフはComet for Windowsで作成したものです。

---------------------------------------------------------------------

Copyright(C) Seiichi Yoshida (comet@aerith.net). All rights reserved.